User: anonymous   Login
Location: Strawberry
(45.6646°N, 111.9596°W)
Time: 02:15:45
(UTC+00:00)
Language:

POLYITAN 1 - Orbit

View from above orbital plane
View from above orbital plane
View from above satellite
View from above satellite

Ground track
Ground track

The orbit data is extracted from the following two-line orbital elements,

1 40042U 14033AJ  22343.49591504  .00003979  00000-0  40075-3 0  9999
2 40042  97.9889 283.9379 0013275 186.9045 173.1992 14.91690275459738
Epoch (UTC): 09 December 2022 11:54:07
Eccentricity: 0.0013275
inclination: 97.9889°
perigee height: 583 km
apogee height: 602 km
right ascension of ascending node: 283.9379°
argument of perigee: 186.9045°
revolutions per day: 14.91690275
mean anomaly at epoch: 173.1992°
orbit number at epoch: 45973

The dashed part of the orbit path shows where the satellite is in the earth's shadow,  

DLR